Location: Songkhla
(7.2000°N, 100.6000°E)
Time: 01:07:20
(UTC+07:00)

ISS - All Passes

Search period start: 22 September 2018 00:00
Search period end: 02 October 2018 00:00
Orbit: 403 x 408 km, 51.6° (Epoch: 21 September)

Date Brightness Start Highest point End Pass type
(mag) Time Alt. Az. Time Alt. Az. Time Alt. Az.
22 Sep - 04:17:13 10° N 04:19:47 21° NE 04:22:20 10° ESE visible
22 Sep - 05:54:56 10° WSW 05:56:03 11° SW 05:57:10 10° SW daylight
22 Sep - 17:30:05 10° SW 17:33:21 85° WNW 17:36:38 10° NE daylight
23 Sep - 05:01:26 10° WNW 05:04:17 28° SW 05:07:09 10° S visible
23 Sep - 16:38:36 10° S 16:41:34 31° SE 16:44:33 10° ENE daylight
24 Sep - 04:09:15 10° NW 04:12:30 87° WSW 04:15:46 10° SE visible
24 Sep - 15:48:17 10° SSE 15:49:47 13° SE 15:51:17 10° E daylight
24 Sep - 17:23:35 10° WSW 17:26:05 20° NW 17:28:33 10° N daylight
25 Sep - 03:17:45 10° N 03:20:41 31° NE 03:23:36 10° ESE night (unlit)
25 Sep - 16:31:01 10° SW 16:34:14 53° NW 16:37:26 10° NNE daylight
26 Sep - 02:27:18 10° NNE 02:28:48 13° NE 02:30:18 10° E night (unlit)
26 Sep - 04:02:41 10° WNW 04:05:08 20° SW 04:07:35 10° S night (unlit)
26 Sep - 15:39:13 10° SSW 15:42:23 48° SE 15:45:35 10° NE daylight
27 Sep - 03:10:08 10° NW 03:13:19 54° SW 03:16:31 10° SSE night (unlit)
27 Sep - 14:48:15 10° S 14:50:35 18° SE 14:52:54 10° E daylight
27 Sep - 16:25:04 10° W 16:26:53 14° NW 16:28:43 10° NNW daylight
28 Sep - 02:18:19 10° NNW 02:21:28 46° NE 02:24:37 10° SE night (unlit)
28 Sep - 15:31:58 10° WSW 15:34:59 34° NW 15:38:01 10° NNE daylight
29 Sep - 01:27:17 10° N 01:29:35 18° NE 01:31:52 10° E night (unlit)
29 Sep - 03:04:07 10° W 03:05:52 14° SW 03:07:37 10° SSW night (unlit)
29 Sep - 14:39:50 10° SSW 14:43:07 77° SE 14:46:22 10° NE daylight
30 Sep - 02:11:00 10° WNW 02:14:01 35° SW 02:17:01 10° SSE night (unlit)
30 Sep - 13:48:27 10° S 13:51:15 26° SE 13:54:02 10° ENE daylight
01 Oct - 01:18:54 10° NNW 01:22:09 74° NE 01:25:23 10° SE night (unlit)
01 Oct - 12:58:54 10° SE 12:59:23 10° SE 12:59:51 10° ESE daylight
01 Oct - 14:32:55 10° WSW 14:35:38 24° NW 14:38:21 10° N daylight
